This is the latest recevied weather packets stored in our database for station/object IU2PLZ-12. If no packets are shown the sender has not sent any weather packets the latest 10 day(s).
| Time | Temp. | Humidity | Pressure | Rain* | Wind** | Luminosity | Snow |
|---|---|---|---|---|---|---|---|
| 1777550475 | 25° C | 26% | 1006.4 hPa | - | - | - | - |
| 1777549575 | 25.56° C | 27% | 1006.4 hPa | - | - | - | - |
| 1777548675 | 24.44° C | 26% | 1006.5 hPa | - | - | - | - |
| 1777547775 | 23.33° C | 26% | 1006.7 hPa | - | - | - | - |
| 1777546874 | 23.89° C | 26% | 1006.6 hPa | - | - | - | - |
| 1777545974 | 22.78° C | 26% | 1006.6 hPa | - | - | - | - |
| 1777545074 | 23.33° C | 27% | 1006.7 hPa | - | - | - | - |
| 1777544174 | 23.89° C | 27% | 1006.7 hPa | - | - | - | - |
| 1777543274 | 24.44° C | 26% | 1006.8 hPa | - | - | - | - |
| 1777542374 | 23.33° C | 28% | 1006.6 hPa | - | - | - | - |
| 1777541473 | 21.11° C | 33% | 1006.6 hPa | - | - | - | - |
| 1777540573 | 20° C | 35% | 1006.8 hPa | - | - | - | - |
| 1777539673 | 20° C | 36% | 1006.8 hPa | - | - | - | - |
| 1777538773 | 19.44° C | 36% | 1006.7 hPa | - | - | - | - |
| 1777537873 | 20° C | 40% | 1006.6 hPa | - | - | - | - |
| 1777536972 | 21.11° C | 40% | 1006.4 hPa | - | - | - | - |
| 1777536072 | 18.89° C | 41% | 1006.2 hPa | - | - | - | - |
| 1777535172 | 18.33° C | 45% | 1006.1 hPa | - | - | - | - |
| 1777534272 | 17.22° C | 48% | 1005.9 hPa | - | - | - | - |
| 1777533371 | 16.67° C | 49% | 1005.8 hPa | - | - | - | - |
| 1777532471 | 16.11° C | 54% | 1005.7 hPa | - | - | - | - |
| 1777531571 | 15.56° C | 56% | 1005.5 hPa | - | - | - | - |
| 1777530671 | 15.56° C | 61% | 1005.5 hPa | - | - | - | - |
| 1777529771 | 15.56° C | 65% | 1005.5 hPa | - | - | - | - |
| 1777528871 | 15° C | 70% | 1005.4 hPa | - | - | - | - |
* Rain since midnight (hover to see other rain measurements)
** Current wind speed in m/s (hover to see current wind gust speed)